Regional Weather Roundup
Issued by NWS Sterling, VA

Home | Current Version | Previous Version | Graphics & Text | Print | Product List | Glossary On
Versions: 1 2 3 4 5 6 7 8 9 10 11 12 13 14 15 16 17 18 19 20 21 22 23 24 25 26 27 28 29 30 31 32 33 34 35 36 37 38 39 40 41 42 43 44 45 46 47 48 49 50
000
ASUS41 KLWX 220810
RWRLWX

REGIONAL WEATHER ROUNDUP
NATIONAL WEATHER SERVICE BALTIMORE MD/WASHINGTON DC
400 AM EDT MON SEP 22 2014

Note: "FAIR" indicates few or no clouds below 12,000 feet
with no significant weather and/or obstructions to visibility.
 TC=TEMPERATURE CELSIUS

 * =Non NWS site. Station does not report precipitation (e.g. rain,
    snow, etc.), thunder, or fog.

DCZ001-MDZ009-015-VAZ040>042-051-053>054-220900-
WASHINGTON METRO

CITY           SKY/WX    TMP DP  RH WIND       PRES   REMARKS
WASHINGTON NAT PTCLDY    70  46  42 NW13G20   29.84R
DULLES         CLEAR     63  47  55 NW12      29.85R
ANDREWS AFB    CLEAR     67  47  49 NW16G25   29.83R
QUANTICO       CLEAR     67  47  48 N13G23    29.85R
COLLEGE PARK*  CLEAR     68  48  49 W8        29.82R
LEESBURG*      CLEAR     63  50  63 NW9       29.86S
MANASSAS*      CLEAR     64  48  55 NW10      29.86R
GAITHERSBURG*  CLEAR     63  46  55 NW9       29.87R

$$

MDZ006>007-011-014-220900-
BALTIMORE METRO

CITY           SKY/WX    TMP DP  RH WIND       PRES   REMARKS
BWI AIRPORT    PTCLDY    64  47  53 W13       29.81R
MD SCIENCE CTR   N/A     67  47  48 MISG      29.81R
MARTIN STATE   CLEAR     68  50  52 W16G22    29.80R
ANNAPOLIS      CLEAR     68  49  50 NW10      29.80R
FORT MEADE*    CLEAR     59  52  77 W6        29.84R

$$

MDZ012-015-019>023-220900-
MARYLAND EASTERN SHORE

CITY           SKY/WX    TMP DP  RH WIND       PRES   REMARKS
OCEAN CITY     CLEAR     70  53  54 NW8       29.78R
SALISBURY      CLEAR     71  53  52 NW6       29.79R
BAY BRIDGE AP*   N/A     68  46  45 NW17G23   29.79R
CAMBRIDGE*     CLEAR     72  46  40 NW9       29.79R
EASTON*        CLEAR     70  52  51 CALM      29.83R

$$

MDZ017>025-220900-
SOUTHERN MARYLAND

CITY           SKY/WX    TMP DP  RH WIND       PRES   REMARKS
PATUXENT RIVER PTCLDY    70  48  45 NW17      29.81R
ST INIGOES     PTCLDY    72  48  42 NW8       29.81R
LEONARDTOWN*   PTCLDY    68  46  45 W6        29.83R

$$

MDZ003>005-220900-
NORTH CENTRAL MARYLAND

CITY           SKY/WX    TMP DP  RH WIND       PRES   REMARKS
FREDERICK*     CLEAR     66  50  55 W7        29.85S
HAGERSTOWN APT CLOUDY    62  49  62 W12       29.84R
WESTMINSTER*   CLEAR     63  50  63 SW6       29.83R

$$

MDZ501>502-220900-
WESTERN MARYLAND

CITY           SKY/WX    TMP DP  RH WIND       PRES   REMARKS
OAKLAND*       CLOUDY    46 N/A N/A W8G18     29.92R FOG
CUMBERLAND*    CLOUDY    63  48  59 NW7       29.92R

$$

VAZ025>031-220900-
SHENANDOAH VALLEY

CITY           SKY/WX    TMP DP  RH WIND       PRES   REMARKS
WINCHESTER*    CLOUDY    63  46  55 W9        29.86S
STAUNTON*      CLEAR     59  45  59 W3        29.93R

$$

WVZ021-048>050-054>055-220900-
EASTERN WEST VIRGINIA PANHANDLE

CITY           SKY/WX    TMP DP  RH WIND       PRES   REMARKS
MARTINSBURG    PTCLDY    62  46  55 W13       29.86R
PETERSBURG*    CLOUDY    63  44  49 W12       29.92S

$$

VAZ036>039-050-220900-
CENTRAL FOOTHILLS

CITY           SKY/WX    TMP DP  RH WIND       PRES   REMARKS
CHARLOTTESVILL CLEAR     65  46  50 W5        29.88R
ORANGE*        CLEAR     61  46  59 CALM      29.88R

$$

VAZ055>057-220900-
NORTH AND CENTRAL PIEDMONT

CITY           SKY/WX    TMP DP  RH WIND       PRES   REMARKS
FREDERICKSBRG* CLEAR     66  52  60 W3        29.84R
STAFFORD*      CLEAR     60  51  73 CALM      29.89R

$$

NCZ024-NYZ072-PAZ021-071-VAZ022-071-220900-
OTHER REGIONAL OBSERVATIONS

CITY           SKY/WX    TMP DP  RH WIND       PRES   REMARKS
NEW YORK CITY  PTCLDY    67  57  70 NW6       29.71R
PHILADELPHIA   PTCLDY    68  58  70 W12       29.75R
PITTSBURGH     CLOUDY    54  48  80 NW13      29.94R
ROANOKE        PTCLDY    59  47  64 W5        29.96R
RICHMOND       CLOUDY    75  49  39 NW10      29.85R
RALEIGH        MOCLDY    69  65  86 CALM      29.90R

$$

ANZ530>537-220900-
MARINE OBSERVATIONS

STATION/POSITION TIME  TEMP    WIND        PRES
                       AIR SEA DIR/SP/G
                 (UTC) (F)     (DEG/KT/KT) (MB)
THOMAS PT LIGHT  0800   69 74  310/ 19/ 21 1009.8R
BALT KEY BRIDGE  0800   69     270/ 18/ 20 1009.0R
COVE POINT       0800   71     330/ 14/ 18 1009.3R
LEWISETTA        0800   72 75  270/  4/  5 1009.5R
SOLOMONS ISLAND  0800      76                N/A
PINEY POINT      0800          340/ 17/ 20   N/A

$$



USA.gov is the U.S. government's official web portal to all federal, state and local government web resources and services.